Time,TemperatureF,DewpointF,PressureIn,WindDirection,WindDirectionDegrees,WindSpeedMPH,WindSpeedGustMPH,Humidity,HourlyPrecipIn,Conditions,Clouds,dailyrainin,SoftwareType,DateUTC
2013-06-10 00:03:00,64.0,57.0,30.15,WSW,255,3.0,-999.0,79,0.01,,,-99.99,,2013-06-10 04:03:00,
2013-06-10 00:12:00,63.0,57.0,30.15,WNW,295,2.0,-999.0,82,0.01,,,-99.99,,2013-06-10 04:12:00,
2013-06-10 00:23:00,63.0,57.0,30.15,WNW,295,2.0,-999.0,82,0.01,,,-99.99,,2013-06-10 04:23:00,
2013-06-10 00:33:00,63.0,58.0,30.14,SW,224,2.0,-999.0,84,0.01,,,-99.99,,2013-06-10 04:33:00,
2013-06-10 00:42:00,63.0,58.0,30.14,SW,224,2.0,-999.0,84,0.01,,,-99.99,,2013-06-10 04:42:00,
2013-06-10 00:53:00,62.0,57.0,30.15,SW,226,0.0,-999.0,85,0.01,,,-99.99,,2013-06-10 04:53:00,
2013-06-10 01:02:00,62.0,58.0,30.14,West,267,0.0,-999.0,86,0.01,,,-99.99,,2013-06-10 05:02:00,
2013-06-10 01:12:00,62.0,58.0,30.14,West,267,0.0,-999.0,86,0.01,,,-99.99,,2013-06-10 05:12:00,
2013-06-10 01:22:00,61.0,57.0,30.15,SSW,200,1.0,-999.0,87,0.01,,,-99.99,,2013-06-10 05:22:00,
2013-06-10 01:32:00,61.0,57.0,30.15,West,267,1.0,-999.0,88,0.01,,,-99.99,,2013-06-10 05:32:00,
2013-06-10 01:42:00,61.0,57.0,30.15,West,267,1.0,-999.0,88,0.01,,,-99.99,,2013-06-10 05:42:00,
2013-06-10 01:52:00,61.0,57.0,30.16,SW,226,1.0,-999.0,87,0.01,,,-99.99,,2013-06-10 05:52:00,
2013-06-10 02:02:00,60.0,56.0,30.15,SW,214,1.0,-999.0,88,0.01,,,-99.99,,2013-06-10 06:02:00,
2013-06-10 02:12:00,60.0,56.0,30.15,SW,214,1.0,-999.0,88,0.01,,,-99.99,,2013-06-10 06:12:00,
2013-06-10 02:22:00,60.0,56.0,30.15,SW,224,0.0,-999.0,88,0.01,,,-99.99,,2013-06-10 06:22:00,
2013-06-10 02:32:00,59.0,56.0,30.15,SW,224,2.0,-999.0,90,0.01,,,-99.99,,2013-06-10 06:32:00,
2013-06-10 02:42:00,59.0,56.0,30.15,SW,224,2.0,-999.0,90,0.01,,,-99.99,,2013-06-10 06:42:00,
2013-06-10 02:53:00,59.0,56.0,30.15,SSW,210,2.0,-999.0,91,0.01,,,-99.99,,2013-06-10 06:53:00,
2013-06-10 03:02:00,59.0,56.0,30.16,West,267,2.0,-999.0,91,0.01,,,-99.99,,2013-06-10 07:02:00,
2013-06-10 03:12:00,59.0,56.0,30.16,West,267,2.0,-999.0,91,0.01,,,-99.99,,2013-06-10 07:12:00,
2013-06-10 03:22:00,59.0,57.0,30.16,SE,134,0.0,-999.0,92,0.01,,,-99.99,,2013-06-10 07:22:00,
2013-06-10 03:32:00,59.0,57.0,30.16,NNW,339,2.0,-999.0,92,0.01,,,-99.99,,2013-06-10 07:32:00,
2013-06-10 03:42:00,59.0,57.0,30.16,NNW,339,2.0,-999.0,92,0.01,,,-99.99,,2013-06-10 07:42:00,
2013-06-10 03:52:00,59.0,57.0,30.16,SW,224,1.0,-999.0,93,0.01,,,-99.99,,2013-06-10 07:52:00,
2013-06-10 04:02:00,58.0,56.0,30.16,WNW,298,0.0,-999.0,93,0.01,,,-99.99,,2013-06-10 08:02:00,
2013-06-10 04:12:00,58.0,56.0,30.16,WNW,298,0.0,-999.0,93,0.01,,,-99.99,,2013-06-10 08:12:00,
2013-06-10 04:22:00,58.0,56.0,30.16,West,271,2.0,-999.0,93,0.01,,,-99.99,,2013-06-10 08:22:00,
2013-06-10 04:32:00,58.0,56.0,30.16,West,267,1.0,-999.0,94,0.01,,,-99.99,,2013-06-10 08:32:00,
2013-06-10 04:42:00,58.0,56.0,30.16,West,267,1.0,-999.0,94,0.01,,,-99.99,,2013-06-10 08:42:00,
2013-06-10 04:52:00,58.0,56.0,30.16,NW,304,2.0,-999.0,94,0.02,,,-99.99,,2013-06-10 08:52:00,
2013-06-10 05:02:00,58.0,57.0,30.18,NNW,335,3.0,-999.0,98,0.02,,,-99.99,,2013-06-10 09:02:00,
2013-06-10 05:12:00,58.0,57.0,30.18,NNW,335,3.0,-999.0,98,0.02,,,-99.99,,2013-06-10 09:12:00,
2013-06-10 05:22:00,57.0,56.0,30.18,North,8,3.0,-999.0,97,0.02,,,-99.99,,2013-06-10 09:22:00,
2013-06-10 05:32:00,57.0,56.0,30.18,North,8,3.0,-999.0,97,0.00,,,-99.99,,2013-06-10 09:32:00,
2013-06-10 05:42:00,57.0,56.0,30.18,North,8,3.0,-999.0,97,0.00,,,-99.99,,2013-06-10 09:42:00,
2013-06-10 05:53:00,57.0,56.0,30.18,NE,44,2.0,-999.0,98,0.00,,,-99.99,,2013-06-10 09:53:00,
2013-06-10 06:03:00,57.0,56.0,30.18,North,0,3.0,-999.0,97,0.00,,,-99.99,,2013-06-10 10:03:00,
2013-06-10 06:12:00,58.0,57.0,30.18,NE,39,1.0,-999.0,98,0.00,,,-99.99,,2013-06-10 10:12:00,
2013-06-10 06:23:00,58.0,57.0,30.18,NE,39,1.0,-999.0,98,0.00,,,-99.99,,2013-06-10 10:23:00,
2013-06-10 06:33:00,58.0,58.0,30.19,NE,35,4.0,-999.0,99,0.00,,,-99.99,,2013-06-10 10:33:00,
2013-06-10 06:42:00,58.0,58.0,30.19,NE,35,4.0,-999.0,99,0.00,,,-99.99,,2013-06-10 10:42:00,
2013-06-10 06:52:00,59.0,59.0,30.19,NNE,30,4.0,-999.0,99,0.00,,,-99.99,,2013-06-10 10:52:00,
2013-06-10 07:03:00,60.0,59.0,30.19,NE,41,4.0,-999.0,98,0.00,,,-99.99,,2013-06-10 11:03:00,
2013-06-10 07:12:00,60.0,59.0,30.19,NE,41,4.0,-999.0,98,0.00,,,-99.99,,2013-06-10 11:12:00,
2013-06-10 07:22:00,62.0,61.0,30.19,East,87,2.0,-999.0,96,0.00,,,-99.99,,2013-06-10 11:22:00,
2013-06-10 07:32:00,63.0,60.0,30.19,ENE,58,3.0,-999.0,91,0.00,,,-99.99,,2013-06-10 11:32:00,
2013-06-10 07:52:00,64.0,61.0,30.20,NE,48,4.0,-999.0,89,0.00,,,-99.99,,2013-06-10 11:52:00,
2013-06-10 08:02:00,64.0,61.0,30.20,East,84,4.0,-999.0,89,0.00,,,-99.99,,2013-06-10 12:02:00,
2013-06-10 08:12:00,64.0,61.0,30.20,East,84,4.0,-999.0,89,0.00,,,-99.99,,2013-06-10 12:12:00,
2013-06-10 08:22:00,65.0,61.0,30.19,ENE,75,3.0,-999.0,88,0.00,,,-99.99,,2013-06-10 12:22:00,
2013-06-10 08:32:00,66.0,62.0,30.19,ENE,62,3.0,-999.0,88,0.00,,,-99.99,,2013-06-10 12:32:00,
2013-06-10 08:42:00,67.0,63.0,30.19,East,89,3.0,-999.0,86,0.00,,,-99.99,,2013-06-10 12:42:00,
2013-06-10 08:52:00,67.0,63.0,30.19,East,89,3.0,-999.0,86,0.00,,,-99.99,,2013-06-10 12:52:00,
2013-06-10 09:02:00,67.0,61.0,30.20,SE,128,6.0,-999.0,82,0.00,,,-99.99,,2013-06-10 13:02:00,
2013-06-10 09:12:00,67.0,61.0,30.20,SE,128,6.0,-999.0,82,0.00,,,-99.99,,2013-06-10 13:12:00,
2013-06-10 09:22:00,67.0,62.0,30.20,ESE,111,3.0,-999.0,83,0.00,,,-99.99,,2013-06-10 13:22:00,
2013-06-10 09:32:00,68.0,62.0,30.20,SE,131,8.0,-999.0,81,0.00,,,-99.99,,2013-06-10 13:32:00,
2013-06-10 09:42:00,69.0,62.0,30.20,East,100,2.0,-999.0,79,0.00,,,-99.99,,2013-06-10 13:42:00,
2013-06-10 09:52:00,69.0,62.0,30.20,East,100,2.0,-999.0,79,0.00,,,-99.99,,2013-06-10 13:52:00,
2013-06-10 10:02:00,70.0,63.0,30.20,ESE,107,10.0,-999.0,78,0.00,,,-99.99,,2013-06-10 14:02:00,
2013-06-10 10:12:00,70.0,63.0,30.20,East,80,5.0,-999.0,78,0.00,,,-99.99,,2013-06-10 14:12:00,
2013-06-10 10:22:00,70.0,63.0,30.20,East,80,5.0,-999.0,78,0.00,,,-99.99,,2013-06-10 14:22:00,
2013-06-10 10:32:00,71.0,63.0,30.20,East,101,4.0,-999.0,77,0.00,,,-99.99,,2013-06-10 14:32:00,
2013-06-10 10:42:00,71.0,63.0,30.20,East,94,5.0,-999.0,76,0.00,,,-99.99,,2013-06-10 14:42:00,
2013-06-10 10:52:00,71.0,63.0,30.20,East,94,5.0,-999.0,76,0.00,,,-99.99,,2013-06-10 14:52:00,
2013-06-10 11:02:00,72.0,63.0,30.20,SSW,197,5.0,-999.0,73,0.00,,,-99.99,,2013-06-10 15:02:00,
2013-06-10 11:12:00,73.0,64.0,30.20,SE,125,3.0,-999.0,74,0.00,,,-99.99,,2013-06-10 15:12:00,
2013-06-10 11:22:00,73.0,64.0,30.20,SE,125,3.0,-999.0,74,0.00,,,-99.99,,2013-06-10 15:22:00,
2013-06-10 11:33:00,72.0,62.0,30.21,ESE,104,2.0,-999.0,72,0.00,,,-99.99,,2013-06-10 15:33:00,
2013-06-10 11:43:00,73.0,63.0,30.21,SSE,152,6.0,-999.0,71,0.00,,,-99.99,,2013-06-10 15:43:00,
2013-06-10 11:53:00,73.0,63.0,30.21,SSE,152,6.0,-999.0,71,0.00,,,-99.99,,2013-06-10 15:53:00,
2013-06-10 12:03:00,73.0,63.0,30.20,ENE,77,3.0,-999.0,71,0.00,,,-99.99,,2013-06-10 16:03:00,
2013-06-10 12:13:00,72.0,62.0,30.20,SE,134,5.0,-999.0,71,0.00,,,-99.99,,2013-06-10 16:13:00,
2013-06-10 12:23:00,72.0,62.0,30.20,SE,134,5.0,-999.0,71,0.00,,,-99.99,,2013-06-10 16:23:00,
2013-06-10 12:33:00,72.0,62.0,30.20,SE,127,5.0,-999.0,71,0.00,,,-99.99,,2013-06-10 16:33:00,
2013-06-10 12:43:00,72.0,62.0,30.20,SSE,160,3.0,-999.0,71,0.00,,,-99.99,,2013-06-10 16:43:00,
2013-06-10 12:53:00,72.0,62.0,30.20,SSE,160,3.0,-999.0,71,0.00,,,-99.99,,2013-06-10 16:53:00,
2013-06-10 13:03:00,72.0,62.0,30.19,SE,127,2.0,-999.0,72,0.00,,,-99.99,,2013-06-10 17:03:00,
2013-06-10 13:14:00,72.0,62.0,30.19,ESE,113,5.0,-999.0,70,0.00,,,-99.99,,2013-06-10 17:14:00,
2013-06-10 13:27:00,72.0,62.0,30.19,ESE,113,5.0,-999.0,70,0.00,,,-99.99,,2013-06-10 17:27:00,
2013-06-10 13:38:00,72.0,62.0,30.19,ESE,113,6.0,-999.0,71,0.00,,,-99.99,,2013-06-10 17:38:00,
2013-06-10 13:48:00,72.0,62.0,30.19,ESE,118,3.0,-999.0,70,0.00,,,-99.99,,2013-06-10 17:48:00,
2013-06-10 14:07:00,72.0,62.0,30.18,East,101,4.0,-999.0,72,0.00,,,-99.99,,2013-06-10 18:07:00,
2013-06-10 14:14:00,73.0,64.0,30.18,SE,139,5.0,-999.0,73,0.00,,,-99.99,,2013-06-10 18:14:00,
2013-06-10 14:35:00,72.0,62.0,30.18,ESE,108,4.0,-999.0,72,0.00,,,-99.99,,2013-06-10 18:35:00,
2013-06-10 14:48:00,72.0,62.0,30.18,ESE,104,1.0,-999.0,72,0.00,,,-99.99,,2013-06-10 18:48:00,
2013-06-10 14:55:00,72.0,62.0,30.18,ESE,104,1.0,-999.0,72,0.00,,,-99.99,,2013-06-10 18:55:00,
2013-06-10 15:03:00,71.0,62.0,30.17,East,98,6.0,-999.0,73,0.00,,,-99.99,,2013-06-10 19:03:00,
2013-06-10 15:13:00,71.0,62.0,30.16,SSE,158,4.0,-999.0,73,0.00,,,-99.99,,2013-06-10 19:13:00,
2013-06-10 15:22:00,71.0,62.0,30.16,SSE,158,4.0,-999.0,73,0.00,,,-99.99,,2013-06-10 19:22:00,
2013-06-10 15:33:00,70.0,61.0,30.16,South,172,4.0,-999.0,74,0.01,,,-99.99,,2013-06-10 19:33:00,
2013-06-10 15:43:00,70.0,62.0,30.16,ESE,108,2.0,-999.0,75,0.01,,,-99.99,,2013-06-10 19:43:00,
2013-06-10 15:53:00,70.0,62.0,30.16,ESE,108,2.0,-999.0,75,0.01,,,-99.99,,2013-06-10 19:53:00,
2013-06-10 16:03:00,70.0,62.0,30.16,ESE,104,7.0,-999.0,75,0.01,,,-99.99,,2013-06-10 20:03:00,
2013-06-10 16:12:00,70.0,62.0,30.16,ESE,104,7.0,-999.0,75,0.01,,,-99.99,,2013-06-10 20:12:00,
2013-06-10 16:23:00,70.0,62.0,30.15,East,100,4.0,-999.0,76,0.01,,,-99.99,,2013-06-10 20:23:00,
2013-06-10 16:32:00,70.0,63.0,30.15,East,101,4.0,-999.0,78,0.01,,,-99.99,,2013-06-10 20:32:00,
2013-06-10 16:43:00,70.0,63.0,30.15,East,101,4.0,-999.0,78,0.01,,,-99.99,,2013-06-10 20:43:00,
2013-06-10 16:53:00,69.0,62.0,30.14,East,94,3.0,-999.0,78,0.01,,,-99.99,,2013-06-10 20:53:00,
2013-06-10 17:02:00,69.0,62.0,30.14,SE,134,2.0,-999.0,79,0.00,,,-99.99,,2013-06-10 21:02:00,
2013-06-10 17:12:00,68.0,62.0,30.13,SE,127,5.0,-999.0,81,0.00,,,-99.99,,2013-06-10 21:12:00,
2013-06-10 17:23:00,68.0,62.0,30.13,SE,127,5.0,-999.0,81,0.00,,,-99.99,,2013-06-10 21:23:00,
2013-06-10 17:33:00,68.0,62.0,30.13,SE,127,3.0,-999.0,81,0.00,,,-99.99,,2013-06-10 21:33:00,
2013-06-10 17:43:00,68.0,62.0,30.13,SE,128,3.0,-999.0,82,0.00,,,-99.99,,2013-06-10 21:43:00,
2013-06-10 17:53:00,68.0,62.0,30.13,SE,128,3.0,-999.0,82,0.00,,,-99.99,,2013-06-10 21:53:00,
2013-06-10 18:03:00,67.0,62.0,30.12,East,86,2.0,-999.0,83,0.00,,,-99.99,,2013-06-10 22:03:00,
2013-06-10 18:13:00,67.0,62.0,30.11,East,98,2.0,-999.0,85,0.00,,,-99.99,,2013-06-10 22:13:00,
2013-06-10 18:22:00,67.0,62.0,30.11,East,98,2.0,-999.0,85,0.00,,,-99.99,,2013-06-10 22:22:00,
2013-06-10 18:33:00,66.0,62.0,30.11,East,98,3.0,-999.0,86,0.00,,,-99.99,,2013-06-10 22:33:00,
2013-06-10 18:42:00,65.0,61.0,30.11,East,89,3.0,-999.0,88,0.00,,,-99.99,,2013-06-10 22:42:00,
2013-06-10 18:52:00,65.0,61.0,30.11,East,89,3.0,-999.0,88,0.00,,,-99.99,,2013-06-10 22:52:00,
2013-06-10 19:02:00,64.0,61.0,30.11,ENE,70,2.0,-999.0,91,0.00,,,-99.99,,2013-06-10 23:02:00,
2013-06-10 19:12:00,64.0,61.0,30.11,East,98,3.0,-999.0,91,0.01,,,-99.99,,2013-06-10 23:12:00,
2013-06-10 19:22:00,64.0,61.0,30.11,East,98,3.0,-999.0,91,0.01,,,-99.99,,2013-06-10 23:22:00,
2013-06-10 19:32:00,63.0,61.0,30.11,East,89,4.0,-999.0,93,0.00,,,-99.99,,2013-06-10 23:32:00,
2013-06-10 19:42:00,63.0,61.0,30.10,ESE,108,4.0,-999.0,94,0.01,,,-99.99,,2013-06-10 23:42:00,
2013-06-10 19:52:00,63.0,61.0,30.10,ESE,108,4.0,-999.0,94,0.01,,,-99.99,,2013-06-10 23:52:00,
2013-06-10 20:02:00,62.0,61.0,30.09,ESE,108,3.0,-999.0,96,0.02,,,-99.99,,2013-06-11 00:02:00,
2013-06-10 20:12:00,62.0,61.0,30.09,SE,134,2.0,-999.0,96,0.02,,,-99.99,,2013-06-11 00:12:00,
2013-06-10 20:22:00,62.0,61.0,30.09,SE,134,2.0,-999.0,96,0.02,,,-99.99,,2013-06-11 00:22:00,
2013-06-10 20:32:00,62.0,61.0,30.09,South,173,1.0,-999.0,97,0.02,,,-99.99,,2013-06-11 00:32:00,
2013-06-10 20:42:00,61.0,60.0,30.08,SSE,153,3.0,-999.0,98,0.04,,,-99.99,,2013-06-11 00:42:00,
2013-06-10 20:52:00,61.0,60.0,30.08,SSE,153,3.0,-999.0,98,0.04,,,-99.99,,2013-06-11 00:52:00,
2013-06-10 21:02:00,61.0,61.0,30.08,ESE,120,3.0,-999.0,100,0.04,,,-99.99,,2013-06-11 01:02:00,
2013-06-10 21:12:00,61.0,61.0,30.07,ESE,121,3.0,-999.0,100,0.00,,,-99.99,,2013-06-11 01:12:00,
2013-06-10 21:22:00,61.0,61.0,30.07,ESE,121,3.0,-999.0,100,0.00,,,-99.99,,2013-06-11 01:22:00,